Iowa City, IA

9:02 PM CST on February 26, 2017 (GMT -0600)
Iowa City Municipal

Weather History for KIOW - October, 2012

Change the Weather History Date:

Sunday, October 14, 2012

  Actual Average Record
Temperature  
Mean Temperature 53 °F 53 °F  
Max Temperature 65 °F 64 °F 87 °F (1975)
Min Temperature 41 °F 42 °F 23 °F (1979)
Degree Days  
Heating Degree Days 12 13  
Month to date heating degree days 208 147  
Since 1 July heating degree days 347 259  
Cooling Degree Days 0 0  
Month to date cooling degree days 0 10  
Year to date cooling degree days 1257 912  
Growing Degree Days 4 (Base 50)    
Moisture  
Dew Point 57 °F    
Average Humidity 89    
Maximum Humidity 100    
Minimum Humidity 77    
Precipitation  
Precipitation 0.88 in 0.11 in 2.25 in (1981)
Month to date precipitation 1.92 1.26  
Year to date precipitation 21.71 30.80  
Sea Level Pressure  
Sea Level Pressure 29.61 in    
Wind  
Wind Speed 10 mph (SSW)    
Max Wind Speed 26 mph    
Max Gust Speed 37 mph    
Visibility 8 miles    
Events Rain    
T = Trace of Precipitation, MM = Missing Value Source: NWS Daily Summary

Daily Weather History Graph

Daily Weather History Graph

Search for Another Location

Airport or City:

Trip Planner

Search our weather history database for the weather conditions in past years. The results will help you decide how hot, cold, wet, or windy it might be!

Date:

Astronomy

Oct. 14, 2012 Rise Set
Actual Time 7:17 AM CDT 6:25 PM CDT
Civil Twilight 6:49 AM CDT 6:53 PM CDT
Nautical Twilight 6:17 AM CDT 7:25 PM CDT
Astronomical Twilight 5:45 AM CDT 7:57 PM CDT
Moon 6:16 AM CDT (10/14) 5:45 PM CDT (10/14)
Length of Visible Light 12h 03m
Length of Day
11h 07m
Waning Crescent, 1% of the Moon is Illuminated
Oct 14
Waning Crescent
Oct 15
New
Oct 21
First Quarter
Oct 29
Full
Nov 6
Last Quarter

Hourly Weather History & Observations

Time (CDT) Temp. Windchill Dew Point Humidity Pressure Visibility Wind Dir Wind Speed Gust Speed Precip Events Conditions
12:52 AM 64.0 °F - 63.0 °F 96% 29.71 in 5.0 mi SE 10.4 mph - 0.15 in Rain Rain
1:07 AM 64.4 °F - 62.6 °F 94% 29.71 in 4.0 mi SSE 11.5 mph - 0.07 in Rain Heavy Rain
1:47 AM 62.6 °F - 62.6 °F 100% 29.69 in 7.0 mi South 9.2 mph - 0.13 in Rain Light Rain
1:52 AM 63.0 °F - 63.0 °F 100% 29.69 in 7.0 mi South 8.1 mph - 0.14 in Rain Light Rain
2:52 AM 61.0 °F - 61.0 °F 100% 29.63 in 10.0 mi SE 5.8 mph - 0.07 in Rain Light Rain
3:52 AM 61.0 °F - 60.1 °F 97% 29.58 in 10.0 mi SE 5.8 mph - 0.00 in   Overcast
4:08 AM 60.8 °F - 60.8 °F 100% 29.58 in 10.0 mi SSE 4.6 mph - N/A   Overcast
4:39 AM 60.8 °F - 60.8 °F 100% 29.57 in 10.0 mi SE 6.9 mph - N/A   Overcast
4:52 AM 61.0 °F - 60.1 °F 97% 29.56 in 10.0 mi SE 6.9 mph - N/A   Overcast
5:52 AM 61.0 °F - 60.1 °F 97% 29.55 in 10.0 mi SE 6.9 mph - 0.02 in   Overcast
6:18 AM 60.8 °F - 60.8 °F 100% 29.55 in 10.0 mi SE 5.8 mph - 0.01 in   Overcast
6:52 AM 61.0 °F - 60.1 °F 97% 29.53 in 9.0 mi SE 5.8 mph - 0.01 in Rain Light Rain
7:15 AM 60.8 °F - 60.8 °F 100% 29.52 in 5.0 mi SE 5.8 mph - 0.03 in Rain Rain
7:22 AM 60.8 °F - 60.8 °F 100% 29.51 in 4.0 mi SSE 4.6 mph - 0.05 in Rain Rain
7:29 AM 60.8 °F - 60.8 °F 100% 29.51 in 4.0 mi SE 6.9 mph - 0.07 in Rain Rain
7:34 AM 60.8 °F - 60.8 °F 100% 29.51 in 2.5 mi SSE 6.9 mph - 0.12 in Rain Heavy Rain
7:52 AM 61.0 °F - 61.0 °F 100% 29.51 in 2.5 mi South 12.7 mph - 0.29 in Rain Heavy Rain
8:00 AM 60.8 °F - 60.8 °F 100% 29.51 in 4.0 mi SSE 9.2 mph - 0.03 in Rain Rain
8:12 AM 62.6 °F - 62.6 °F 100% 29.51 in 5.0 mi South 10.4 mph - 0.05 in Rain Rain
8:21 AM 62.6 °F - 62.6 °F 100% 29.50 in 10.0 mi South 11.5 mph - 0.06 in Rain Light Rain
8:29 AM 62.6 °F - 62.6 °F 100% 29.50 in 10.0 mi South 9.2 mph - 0.06 in Rain Light Rain
8:52 AM 64.0 °F - 63.0 °F 96% 29.49 in 10.0 mi SW 12.7 mph 21.9 mph 0.06 in   Scattered Clouds
9:29 AM 64.4 °F - 60.8 °F 88% 29.49 in 10.0 mi South 13.8 mph - 0.00 in Rain Light Rain
9:41 AM 62.6 °F - 60.8 °F 94% 29.49 in 10.0 mi South 13.8 mph - 0.00 in   Overcast
9:52 AM 63.0 °F - 60.1 °F 90% 29.48 in 10.0 mi SSW 12.7 mph 21.9 mph 0.00 in Rain Light Rain
10:07 AM 62.6 °F - 60.8 °F 94% 29.48 in 10.0 mi SSW 12.7 mph 23.0 mph 0.01 in Rain Light Rain
10:18 AM 60.8 °F - 59.0 °F 94% 29.47 in 8.0 mi SSW 15.0 mph - 0.02 in Rain Light Rain
10:26 AM 60.8 °F - 60.8 °F 100% 29.47 in 8.0 mi West 16.1 mph 21.9 mph 0.03 in Rain Light Rain
10:37 AM 59.0 °F - 59.0 °F 100% 29.47 in 6.0 mi West 12.7 mph - 0.06 in Rain Rain
10:52 AM 57.9 °F - 57.9 °F 100% 29.47 in 8.0 mi West 15.0 mph 24.2 mph 0.08 in Rain Rain
11:13 AM 57.2 °F - 57.2 °F 100% 29.48 in 8.0 mi West 17.3 mph 28.8 mph 0.03 in Rain Rain
11:28 AM 57.2 °F - 57.2 °F 100% 29.50 in 1.8 mi NW 18.4 mph 32.2 mph 0.12 in Rain Heavy Rain
11:41 AM 55.4 °F - 55.4 °F 100% 29.52 in 3.0 mi NW 23.0 mph 35.7 mph 0.18 in Rain Rain
11:52 AM 55.0 °F - 55.0 °F 100% 29.53 in 5.0 mi NW 21.9 mph 31.1 mph 0.20 in Rain Rain
12:08 PM 53.6 °F - 53.6 °F 100% 29.55 in 6.0 mi NW 21.9 mph 36.8 mph 0.02 in Rain Light Rain
12:52 PM 53.1 °F - 53.1 °F 100% 29.60 in 10.0 mi NW 20.7 mph 31.1 mph 0.03 in Rain Light Rain
1:52 PM 53.1 °F - 52.0 °F 96% 29.65 in 10.0 mi NW 20.7 mph 33.4 mph 0.01 in   Overcast
3:52 PM 52.0 °F - 46.9 °F 83% 29.74 in 10.0 mi NW 19.6 mph 28.8 mph N/A   Overcast
4:52 PM 53.1 °F - 46.0 °F 77% 29.78 in 10.0 mi WNW 17.3 mph 26.5 mph N/A   Overcast
5:14 PM 53.6 °F - 46.4 °F 77% 29.79 in 10.0 mi WNW 13.8 mph 20.7 mph N/A   Overcast
5:52 PM 53.1 °F - 46.0 °F 77% 29.82 in 10.0 mi WNW 11.5 mph - N/A   Overcast
6:52 PM 53.1 °F - 46.0 °F 77% 29.84 in 10.0 mi NNW 6.9 mph - N/A   Overcast
7:52 PM 52.0 °F - 46.0 °F 80% 29.86 in 10.0 mi NW 6.9 mph - N/A   Overcast
8:52 PM 50.0 °F - 45.0 °F 83% 29.87 in 10.0 mi NNW 4.6 mph - N/A   Clear
9:52 PM 45.0 °F - 43.0 °F 93% 29.89 in 9.0 mi Calm Calm - N/A   Clear
10:52 PM 43.0 °F 40.3 °F 42.1 °F 97% 29.91 in 8.0 mi West 4.6 mph - N/A   Clear
11:52 PM 43.0 °F - 41.0 °F 93% 29.91 in 7.0 mi Calm Calm - N/A   Clear